Home > Weather > Kerpen > Past weeks

Flag for Germany Weather for the Past 2 Weeks in Kerpen, North Rhine-Westphalia, Germany

Now
52 °F

Partly sunny.


Feels Like: 47 °F
Forecast: 46 / 51 °F
Wind: 13 mph from Southwest

Location: Noervenich

Current Time: Feb 6, 2016 at 3:03:06 PM

Latest Report: Feb 6, 2016 at 2:20 PM


Visibility: N/A

Pressure: 29.83 "Hg

Humidity: 62%

Dew point: 39 °F

Location of KerpenLocation

Historic Weather in Kerpen — Graph

°F

Kerpen Temperature Yesterday

Maximum temperature yesterday: 52 °F (at 1:20 PM)
Minimum temperature yesterday: 39 °F (at 12:20 AM)
Average temperature yesterday: 46 °F

High & Low Weather Summary for the Past Weeks

 TemperatureHumidityPressure
High57 °F (Jan 25, 2:20 PM)100% (Jan 22, 11:20 PM)30.57 "Hg (Jan 22, 11:20 PM)
Low32 °F (Jan 22, 8:20 PM)51% (Jan 25, 4:20 PM)29.74 "Hg (Jan 30, 2:20 PM)
Average46 °F81%30.14 "Hg
* Reported Jan 22 1:20 PM — Feb 6 1:20 PM, Kerpen, Weather by CustomWeather, © 2016

Note: Actual official high and low records may vary slightly from our data, if they occured in-between our weather recording intervals... More about our weather records

Advertising

Kerpen Weather History for the Previous 24 Hours

 ConditionsComfort  
Time TempWeatherWind HumidityBarometerVisibility
1:20 PM
Sat, Feb 6
52 °FPartly sunny.7 mph62%29.86 "HgN/A
12:20 PM52 °FPartly sunny.10 mph62%29.89 "HgN/A
11:20 AM52 °FPartly sunny.8 mph67%29.89 "HgN/A
10:20 AM50 °FPartly sunny.8 mph71%29.89 "HgN/A
9:20 AM46 °FScattered clouds.5 mph82%29.92 "HgN/A
8:20 AM45 °FPartly sunny.6 mph81%29.92 "HgN/A
7:20 AM46 °FPassing clouds.5 mph76%29.92 "HgN/A
6:20 AM45 °FPassing clouds.1 mph81%29.95 "HgN/A
5:20 AM46 °FPassing clouds.7 mph82%29.95 "HgN/A
4:20 AM46 °FPassing clouds.5 mph82%29.98 "HgN/A
3:20 AM46 °FPassing clouds.6 mph82%30.01 "HgN/A
2:20 AM48 °FPassing clouds.5 mph76%30.04 "HgN/A
1:20 AM48 °FPassing clouds.2 mph82%30.04 "HgN/A
12:20 AM48 °FPassing clouds.3 mph82%30.07 "HgN/A
11:20 PM
Fri, Feb 5
50 °FPassing clouds.5 mph76%30.09 "HgN/A
10:20 PM50 °FPassing clouds.8 mph76%30.09 "HgN/A
9:20 PM48 °FPassing clouds.5 mph76%30.12 "HgN/A
8:20 PM48 °FPassing clouds.3 mph82%30.12 "HgN/A
7:20 PM50 °FPartly cloudy.2 mph76%30.15 "HgN/A
6:20 PM50 °FPassing clouds.5 mph82%30.15 "HgN/A
5:20 PM50 °FPartly sunny.1 mph88%30.15 "HgN/A
4:20 PM50 °FPartly sunny.1 mph88%30.18 "HgN/A
3:20 PM52 °FPartly sunny.2 mph77%30.18 "HgN/A
Weather by CustomWeather, © 2016

See weather overviewHow to use our weather pages